EW3803 Weather Reports


time (UTC)temp
C
wind
direction
speed
KPH
gust
KPH
rain 1hr
cm
rain 24hr
cm
rain mn
cm
humidity
%
barometer
mb
20190617130036 18 234 9.7 19.3 0.00 0.00 0.00 72 1015.9
20190617124517 18 222 8.0 17.7 0.00 0.00 0.00 71 1016.0
20190617123031 18 209 8.0 16.1 0.00 0.00 0.00 70 1016.0
20190617121542 18 263 4.8 12.9 0.00 0.00 0.00 71 1016.2
20190617120031 18 257 8.0 16.1 0.00 0.00 0.00 71 1016.3
20190617114510 18 255 8.0 16.1 0.00 0.00 0.00 70 1016.4
20190617113008 18 236 6.4 14.5 0.00 0.00 0.00 71 1016.4
20190617111511 17 240 8.0 14.5 0.00 0.00 0.00 72 1016.5
20190617110005 17 301 6.4 16.1 0.00 0.00 0.00 75 1016.8
20190617104518 17 319 6.4 14.5 0.00 0.00 0.00 73 1016.8
20190617103003 17 289 11.3 16.1 0.00 0.00 0.00 74 1016.8
20190617101501 17 302 9.7 16.1 0.00 0.00 0.00 76 1016.7
20190617094907 17 326 6.4 12.9 0.00 0.00 0.00 74 1016.5
20190617093312 17 309 4.8 11.3 0.00 0.00 0.00 75 1016.4
20190617091624 17 360 3.2 12.9 0.00 0.00 0.00 77 1016.5
20190617090144 16 286 4.8 12.9 0.00 0.00 0.00 77 1016.6
20190617084651 16 34 4.8 12.9 0.00 0.00 0.00 78 1016.7
20190617083226 16 335 4.8 12.9 0.00 0.00 0.00 79 1016.8
20190617081639 16 26 4.8 9.7 0.00 0.00 0.00 80 1016.9
20190617080155 15 9 4.8 9.7 0.00 0.00 0.00 84 1017.0
20190617074628 14 33 3.2 12.9 0.00 0.00 0.00 85 1017.1
20190617073111 14 28 4.8 9.7 0.00 0.00 0.00 86 1017.0
20190617071741 13 25 8.0 14.5 0.00 0.00 0.00 86 1017.2
20190617070113 13 9 4.8 12.9 0.00 0.00 0.00 88 1017.1
20190617064546 13 29 4.8 8.0 0.00 0.00 0.00 87 1017.0
20190617063115 13 73 3.2 6.4 0.00 0.00 0.00 88 1016.8
20190617061539 12 72 3.2 8.0 0.00 0.00 0.00 89 1016.8
20190617060104 12 59 4.8 8.0 0.00 0.00 0.00 89 1016.9
20190617054544 12 59 3.2 4.8 0.00 0.00 0.00 89 1017.3
20190617053111 12 59 3.2 6.4 0.00 0.00 0.00 89 1017.1
20190617051629 12 59 3.2 9.7 0.00 0.00 0.00 89 1017.1
20190617050101 12 65 6.4 9.7 0.00 0.00 0.00 89 1016.8
20190617044542 12 66 6.4 9.7 0.00 0.00 0.00 89 1016.6
20190617043114 12 82 6.4 12.9 0.00 0.00 0.00 89 1016.8
20190617041553 12 63 4.8 8.0 0.00 0.00 0.00 88 1016.9
20190617040041 12 57 4.8 8.0 0.00 0.00 0.00 88 1016.9
20190617034541 12 57 6.4 9.7 0.00 0.00 0.00 88 1017.0
20190617033111 12 54 4.8 9.7 0.00 0.00 0.00 88 1017.1
20190617031556 12 51 6.4 11.3 0.00 0.00 0.00 89 1017.2
20190617030021 12 50 4.8 9.7 0.00 0.00 0.00 90 1017.2
20190617024539 12 360 3.2 6.4 0.00 0.00 0.00 91 1017.5
20190617023107 12 351 3.2 6.4 0.00 0.00 0.00 92 1017.6
20190617021545 12 351 4.8 6.4 0.00 0.00 0.00 92 1017.7
20190617020034 13 351 1.6 4.8 0.00 0.00 0.00 93 1017.7
20190617014526 13 351 3.2 4.8 0.00 0.00 0.00 93 1017.7
20190617013007 13 351 0.0 4.8 0.00 0.00 0.00 93 1017.8
20190617011505 13 351 0.0 1.6 0.00 0.00 0.00 93 1017.9
20190617010002 13 351 0.0 3.2 0.00 0.00 0.00 93 1017.9
20190617004503 13 351 1.6 4.8 0.00 0.00 0.00 92 1018.0
20190617003151 13 351 3.2 4.8 0.00 0.00 0.00 92 1018.1
20190617001642 13 351 1.6 4.8 0.00 0.00 0.00 92 1018.0
20190617000300 13 351 1.6 4.8 0.00 0.00 0.00 92 1018.2
20190616234721 13 351 3.2 4.8 0.00 0.00 0.00 91 1018.4
20190616233126 13 351 3.2 6.4 0.00 0.00 0.00 91 1018.5
20190616231654 13 351 3.2 6.4 0.00 0.00 0.00 91 1018.6
20190616230144 14 351 3.2 9.7 0.00 0.00 0.00 91 1018.8
20190616224634 14 348 3.2 9.7 0.00 0.00 0.00 91 1018.8
20190616223115 14 339 1.6 9.7 0.00 0.00 0.00 91 1018.8
20190616220154 14 355 4.8 9.7 0.00 0.00 0.00 90 1018.4
20190616214618 14 341 8.0 14.5 0.00 0.00 0.00 90 1018.4
20190616213207 15 355 9.7 17.7 0.00 0.00 0.00 90 1018.3
20190616211627 15 314 8.0 19.3 0.00 0.00 0.00 89 1018.4
20190616210133 15 333 11.3 19.3 0.00 0.00 0.00 88 1018.3
20190616204636 15 286 9.7 22.5 0.00 0.00 0.00 88 1018.3
20190616203134 15 297 14.5 27.4 0.00 0.00 0.00 87 1018.2
20190616200111 15 301 14.5 22.5 0.00 0.00 0.00 85 1018.3
20190616194617 15 336 14.5 25.7 0.00 0.00 0.00 83 1018.1
20190616193202 16 310 14.5 22.5 0.00 0.00 0.00 82 1018.0
20190616191642 16 272 12.9 27.4 0.00 0.00 0.00 81 1018.0
20190616190156 16 295 12.9 24.1 0.00 0.00 0.00 81 1017.8
20190616184640 16 325 11.3 29.0 0.00 0.00 0.00 80 1017.8
20190616183113 17 296 14.5 27.4 0.00 0.00 0.00 79 1017.8
20190616181559 17 259 16.1 27.4 0.00 0.00 0.00 78 1018.0
20190616180107 17 303 12.9 29.0 0.00 0.00 0.00 78 1017.8
20190616174641 17 327 12.9 33.8 0.00 0.00 0.00 77 1017.8
20190616173108 17 315 14.5 27.4 0.00 0.00 0.00 78 1017.9
20190616171634 17 300 16.1 32.2 0.00 0.00 0.00 79 1017.9
20190616170115 17 289 14.5 30.6 0.00 0.00 0.00 78 1018.0
20190616164640 17 275 11.3 27.4 0.00 0.00 0.00 79 1017.9
20190616163115 17 288 17.7 32.2 0.00 0.00 0.00 79 1018.0
20190616161610 17 319 17.7 29.0 0.00 0.00 0.00 79 1018.0
20190616160052 18 263 12.9 29.0 0.00 0.00 0.00 79 1018.2
20190616154537 18 298 12.9 25.7 0.00 0.00 0.00 79 1018.1
20190616153041 17 314 16.1 30.6 0.00 0.00 0.00 79 1018.1
20190616151543 18 290 16.1 30.6 0.00 0.00 0.00 78 1018.1
20190616150052 18 294 16.1 24.1 0.00 0.00 0.00 77 1018.1
20190616144553 18 301 17.7 27.4 0.00 0.00 0.00 76 1018.3
20190616143031 18 289 17.7 27.4 0.00 0.00 0.00 78 1018.3
20190616141540 18 329 14.5 27.4 0.00 0.00 0.00 76 1018.2
20190616140041 18 306 12.9 24.1 0.00 0.00 0.00 72 1018.1
20190616134605 19 333 12.9 24.1 0.00 0.00 0.00 70 1018.2
20190616133040 18 306 11.3 22.5 0.00 0.00 0.00 72 1018.3
20190616131521 17 297 12.9 22.5 0.00 0.00 0.00 74 1018.4